Regional Weather Roundup
Issued by NWS

Home | Current Version | Previous Version | Text Only | Print | Product List | Glossary On
Versions: 1 2 3 4 5 6 7 8 9 10 11 12 13 14 15 16 17 18 19 20 21 22 23 24 25 26 27 28 29 30 31 32 33 34 35 36 37 38 39 40 41 42 43 44 45 46 47 48 49 50
000
ASUS43 KBIS 251920
RWRND

NORTH DAKOTA REGIONAL WEATHER ROUNDUP
NATIONAL WEATHER SERVICE BISMARCK ND
100 PM CST TUE NOV 25 2014

NOTE: "FAIR" INDICATES FEW OR NO CLOUDS BELOW 12,000 FEET WITH NO
SIGNIFICANT WEATHER AND/OR OBSTRUCTIONS TO VISIBILITY.


NDZ001>003-009>011-017-252000-
NORTHWEST NORTH DAKOTA

CITY           SKY/WX    TMP DP  RH WIND       PRES   REMARKS
WILLISTON      CLOUDY    35  31  85 W8        29.67F
MINOT          SNOW      29  26  89 E10       29.71F VSB 1/2 WCI  20
MINOT AFB      SNOW      27  27 100 E18       29.71F VSB 1/2 WCI  13
$$

NDZ018>021-031>035-040>046-252000-
SOUTHWEST NORTH DAKOTA

CITY           SKY/WX    TMP DP  RH WIND       PRES   REMARKS
BISMARCK       SNOW      31  29  92 S12       29.73F VSB 1/2
DICKINSON      FLURRIES  34  32  92 W17       29.65S
GARRISON         N/A     30  29  96 S10       29.69F
HETTINGER ARPT LGT SNOW  33  31  92 W15       29.70S FOG
$$

NDZ004>008-012>016-024-026-027-054-252000-
NORTHEAST NORTH DAKOTA

CITY           SKY/WX    TMP DP  RH WIND       PRES   REMARKS
GRAND FORKS    CLOUDY    22  15  75 E6        29.94F WCI  14
GRND FRKS AFB  CLOUDY    21  16  80 E5        29.93F WCI  15
DEVILS LAKE    CLOUDY    25  14  63 E10       29.82F WCI  15
$$

NDZ022-023-025-028>030-036>039-047>053-252000-
SOUTHEAST NORTH DAKOTA

CITY           SKY/WX    TMP DP  RH WIND       PRES   REMARKS
FARGO          CLOUDY    26  18  71 SE7       29.94F WCI  18
JAMESTOWN      CLOUDY    32  22  66 SE13      29.83F
$$



USA.gov is the U.S. government's official web portal to all federal, state and local government web resources and services.